カタログに戻る

THOR ABLESTAR DEB

運用中LEO
NORAD 5748·DEBRIS·🇺🇸 United States

打ち上げ Jun 29, 1961 から Cape Canaveral Space Force Station

Loading…

次のパス (今後24時間)

TLE

最新Source: Space-Track

元期: Sep 14, 2026, 09:00 UTC

1 05748U 61015JX  26257.37512238  .00000677  00000-0  83171-3 0  9993
2 05748  67.5539 238.5162 0113859 336.7625 175.1003 13.68344838166858

AllMySatでTHOR ABLESTAR DEBをリアルタイム追跡

Download on the App Store